User: anonymous   Login
Location: Unspecified
(0.0000°N, 0.0000°E)
Time: 12:52:59
(UTC+00:00)
Language:

USA 285 - Orbit

View from above orbital plane
View from above orbital plane
View from above satellite
View from above satellite

Ground track
Ground track

The orbit is defined by the following mean orbital elements,

1 43445U          26146.07473859 +.00000000 +00000-0 +00000-0 0 00005
2 43445   7.0661  67.2162 0010660 168.4208 353.6620  1.02112705    02
Epoch (UTC): 26 May 2026 01:47:37
Eccentricity: 0.0010660
inclination: 7.0661°
perigee height: 35234 km
apogee height: 35323 km
right ascension of ascending node: 67.2162°
argument of perigee: 168.4208°
revolutions per day: 1.02112705
mean anomaly at epoch: 353.6620°

The dashed part of the orbit path shows where the satellite is in the earth's shadow,  

DLR